CAPE
0 2 0 0 6 0 4 6 7 10 13 14 15 13 4 7 2 0 0 0 0 0 0 0 0 0 0 1 0 8 72 53 29 0 0 0 0 8 57 68 84 11 5 14 19 5 0 242 69 24 915 897 1138 1025
8 9 0 0 0 1 1 8 14 16 7 1 8 13 12 11 9 1 0 0 0 0 0 0 0 0 0 0 0 0 1 45 40 64 50 63 68 76 91 14 35 9 89 189 353 210 567 1177 1143 1146 940 878 1189 952
19 14 0 7 9 6 0 0 0 1 5 6 7 5 4 4 7 3 0 0 0 0 0 0 0 0 0 0 0 0 0 10 45 19 0 6 55 2 67 31 48 70 46 109 173 193 532 574 734 668 636 671 695 483
0 0 6 8 7 1 9 8 4 4 3 3 4 1 7 7 4 4 0 0 2 0 0 3 0 0 0 0 0 0 0 0 13 16 0 0 0 0 0 4 1 0 60 25 44 153 0 218 610 718 585 494 351 157
0 0 11 5 4 13 13 6 6 4 2 3 2 4 5 3 3 2 1 0 1 1 0 0 0 0 0 0 0 0 0 0 0 0 0 0 0 3 0 0 0 0 6 9 17 163 88 231 928 685 490 320 211 41
0 6 0 4 2 6 4 3 4 3 2 2 1 1 2 3 1 0 3 0 3 3 1 0 0 0 0 0 0 0 0 0 0 0 9 10 39 6 0 0 0 28 7 199 87 257 303 282 208 119 172 133 108 71
2 0 3 8 16 4 5 5 3 2 1 0 0 0 0 0 0 2 1 0 0 3 2 0 5 1 0 0 0 0 0 0 0 5 20 15 33 6 0 0 0 43 22 18 52 0 21 0 65 255 162 125 133 80
2 0 0 3 11 2 3 1 0 0 0 0 0 0 0 0 0 0 0 0 0 1 4 2 0 7 13 15 16 0 0 3 1 11 27 36 50 35 0 0 0 1 1 0 0 11 22 0 444 372 361 215 39 29
2 1 0 4 3 7 3 1 0 0 0 0 0 0 0 0 3 8 0 0 0 7 12 11 0 13 40 18 24 23 36 18 6 2 8 21 37 24 1 0 0 0 0 0 0 0 0 0 149 485 456 447 140 29
2 4 0 2 2 3 2 0 0 0 0 0 0 2 21 20 0 0 0 5 15 3 3 3 1 3 4 16 46 57 49 22 24 12 13 11 11 12 12 0 30 52 0 0 0 11 154 383 273 544 392 311 142 28
1 2 1 1 1 1 2 1 0 0 0 0 4 2 1 0 1 16 13 2 17 20 6 3 4 8 7 8 19 46 77 49 25 20 12 4 9 1 14 15 46 49 1 40 16 57 258 474 664 495 360 258 162 31
0 2 5 2 0 0 0 1 0 0 0 0 0 0 0 6 21 18 21 27 16 14 9 7 27 18 3 15 32 76 58 32 5 13 17 20 9 40 6 14 5 28 11 43 48 89 158 424 805 606 401 253 91 44
2 0 4 0 0 0 0 0 0 0 0 2 9 0 11 10 3 11 8 17 28 13 19 31 36 12 21 14 9 62 51 4 28 52 49 33 101 32 7 7 28 18 2 20 66 29 115 781 908 664 368 115 64 4
3 0 0 0 0 0 0 0 0 0 0 4 0 0 2 7 1 22 18 16 32 29 15 6 15 21 86 30 28 14 20 64 66 14 35 37 156 245 482 62 98 3 2 5 40 180 727 823 723 524 301 85 0 0
3 0 0 0 0 0 0 0 0 0 1 1 5 0 0 10 7 3 1 1 20 17 5 6 7 28 44 28 31 6 17 8 42 72 64 22 4 21 376 559 650 223 15 278 519 751 708 585 290 107 0 0 0 0
4 0 0 0 0 0 0 0 0 0 4 0 0 0 5 13 2 8 3 14 10 5 14 33 10 0 2 14 25 2 26 15 3 72 21 54 15 0 363 624 716 789 887 854 681 409 175 26 0 0 0 0 0 0
0 5 0 0 0 0 0 0 11 2 0 0 0 0 0 1 3 0 0 0 1 7 23 0 1 2 1 5 40 51 52 1 12 38 27 27 48 167 206 360 503 543 460 261 56 10 3 2 1 0 1 1 1 1
5 4 0 0 0 0 6 0 5 0 0 0 0 0 2 5 2 3 12 18 13 26 17 3 3 1 2 3 2 0 0 1 9 5 6 38 60 95 201 108 44 4 3 3 3 1 0 1 1 1 0 0 0 0
10 4 0 0 0 0 3 0 0 0 0 0 0 0 3 13 10 8 19 26 12 0 0 1 0 3 3 7 1 1 0 2 3 5 4 37 125 42 17 7 4 1 0 0 0 0 1 1 1 0 0 0 0 0
5 0 0 0 0 3 0 0 0 0 0 1 0 10 7 13 4 0 0 0 1 1 1 0 1 6 3 1 2 2 1 1 1 1 1 9 6 2 2 2 3 3 3 3 5 3 1 1 1 0 0 0 0 0
4 0 0 0 1 0 0 0 0 0 1 2 16 0 0 0 0 0 3 3 6 10 3 7 1 1 14 1 2 1 0 2 1 0 1 2 3 2 3 3 2 2 0 0 1 5 8 17 7 2 0 7 24 13
3 0 5 0 2 0 0 0 0 1 1 7 1 0 1 1 2 3 8 1 6 4 7 5 8 3 0 1 1 2 1 1 2 1 2 1 3 4 5 5 2 10 11 9 7 18 8 11 13 6 20 23 24 9
0 0 1 0 0 0 0 2 2 7 3 2 1 1 2 3 2 1 2 5 12 8 2 7 1 2 2 2 1 1 1 1 2 5 6 6 9 8 2 1 0 0 1 6 0 0 0 0 0 0 5 2 2 9
0 5 3 5 3 0 0 2 4 1 1 1 0 1 3 3 0 2 0 3 1 2 2 1 1 2 1 1 2 2 2 2 2 2 1 1 1 2 1 0 0 0 0 0 3 0 0 0 0 0 0 0 0 1
0 0 0 0 0 0 1 1 0 1 1 2 1 2 3 4 0 0 0 2 2 2 2 1 0 0 0 1 2 3 2 1 0 1 3 1 1 1 0 0 0 0 0 0 0 0 0 0 0 0 5 1 1 1
0 0 0 1 1 1 0 1 1 1 1 1 2 22 16 1 0 0 0 3 0 0 0 0 0 0 0 0 0 0 0 0 0 1 1 0 0 0 0 0 0 0 0 0 0 0 0 4 5 0 0 0 0 0
0 1 5 5 3 1 1 2 2 1 1 9 20 9 3 0 0 1 2 2 1 0 0 0 0 3 1 2 1 2 1 0 0 0 0 0 1 4 7 13 9 4 11 14 8 5 1 3 4 0 0 0 0 0
2 0 0 2 2 2 1 2 1 3 19 9 2 1 4 0 0 2 2 0 0 0 0 0 0 0 0 0 0 0 0 0 0 0 0 0 0 0 0 0 0 0 0 0 6 7 3 2 0 0 0 0 0 0
0 1 1 0 3 0 13 6 6 2 0 0 1 3 12 1 1 0 0 0 1 0 0 0 0 0 0 0 0 0 0 0 0 0 0 0 0 0 0 0 0 0 0 0 0 0 0 0 0 0 0 0 0 0
9 0 5 8 5 4 9 4 2 8 7 7 8 0 0 2 2 0 1 1 2 0 0 0 0 0 0 0 0 0 0 0 0 0 0 0 0 0 0 0 0 0 0 0 0 0 0 0 0 0 0 6 5 1
10 9 7 6 8 7 12 12 12 10 10 11 17 10 13 2 7 4 4 3 8 9 7 3 0 2 1 0 0 0 0 0 0 0 0 0 0 0 0 0 0 0 0 0 0 0 0 1 4 4 3 1 0 0
12 17 14 15 14 9 27 22 17 8 4 15 21 20 13 30 10 12 11 10 17 12 6 20 15 16 10 5 0 0 0 0 0 0 0 0 0 0 4 3 3 1 1 0 1 5 6 5 4 4 7 7 7 11
29 21 11 15 22 30 23 9 25 38 26 35 26 28 24 28 23 30 15 23 26 23 21 26 23 19 9 19 11 0 0 0 0 0 0 0 0 0 0 0 0 0 0 0 1 4 7 7 6 8 8 11 10 1
CIN
0 0 0 0 0 0 0 0 0 0 -2 -2 -1 0 -1 -1 -1 0 0 0 0 0 0 0 0 0 0 -4 0 -39 -28 -4 -5 0 0 0 0 -4 -6 -6 -1 -3 -7 -3 -5 -1 0 -8 -6 -9 -52 -49 -21 -112
-1 0 0 0 0 0 0 0 0 0 0 -1 -1 -1 -1 0 -1 0 0 0 0 0 0 0 0 0 0 0 0 -8 -5 -20 -16 -14 -14 -3 -6 -2 -48 -6 -34 -40 -27 -11 -21 -36 -48 -16 -26 -37 -58 -67 -32 -97
-1 0 0 0 0 0 0 0 0 0 -2 -2 0 0 0 -1 0 0 0 -1 -1 0 0 0 0 0 0 0 0 0 -2 -27 -38 -9 0 -15 -7 -5 -14 -95 -25 -59 -91 -20 -51 -50 -46 -7 -31 -32 -28 -68 -54 -90
0 0 0 0 -1 0 0 -2 -2 -1 -1 -1 0 -1 -1 -1 0 0 -1 -1 -1 0 0 -2 0 0 0 0 0 0 0 0 -38 -48 0 0 -2 0 -14 -4 -21 0 -73 -80 -44 -63 0 -12 -1 -45 -46 -61 -63 -84
0 0 0 0 -1 0 -2 0 -1 -1 0 0 0 0 0 -1 -1 -1 -2 -1 -2 0 0 0 0 0 0 0 0 0 0 0 0 0 0 0 -1 -4 -1 0 0 -1 -7 -48 -5 -33 -13 -24 -4 -2 -19 -35 -54 -128
0 0 0 0 0 0 0 0 0 0 0 0 0 0 0 0 -1 0 0 0 -1 0 -1 0 0 0 0 0 0 0 0 0 0 0 -3 -3 -1 -15 0 0 0 -39 -91 -3 -15 -44 -58 -89 -88 -104 -27 -66 -112 -143
0 0 0 0 0 0 0 0 0 0 0 0 0 0 0 0 0 -1 0 -1 0 -1 -1 0 -5 -3 0 0 0 0 0 0 0 -3 -2 -3 -3 -11 0 0 0 -56 -29 -103 -109 0 -83 -4 -93 -36 -16 -99 -125 -138
0 0 0 0 0 0 0 0 0 0 0 0 0 0 0 0 0 0 -1 0 -1 -2 -1 -1 -1 -11 -4 -13 -2 0 -1 -2 -2 -3 -2 -5 -3 -7 0 0 0 -5 -24 0 0 -194 -96 0 -5 -28 -11 -41 -102 -135
0 0 0 0 0 0 0 0 0 0 0 0 0 0 0 -1 -1 -3 0 0 0 0 0 0 0 -1 -3 -12 -5 -5 -4 -6 -3 -3 -5 -3 -6 -14 0 0 0 0 0 -15 0 0 -35 0 -26 -3 -2 -48 -87 -119
0 0 0 0 0 0 0 0 0 0 0 0 0 -1 0 -2 0 0 0 -2 -4 0 -2 -1 -3 -3 -4 -3 -4 -11 -3 -3 -2 -5 -3 -5 -4 -4 -20 -1 -38 -54 -3 -131 -4 -17 -10 -6 -5 -3 -8 -22 -72 -120
0 0 0 0 0 0 0 0 0 0 0 0 -4 -1 -6 0 -1 -1 0 0 0 0 -1 -1 -2 -1 -7 -3 -2 -3 -3 -3 -2 -4 -7 -9 -5 -2 -12 -4 -9 -39 -27 -37 -69 -11 -2 -15 -13 -41 -9 -32 -52 -77
0 0 0 0 0 0 0 0 0 0 0 0 0 0 0 -7 -1 0 0 0 -2 -2 -3 -2 -1 -1 -1 -1 -2 -1 -2 -5 -2 -3 -4 -5 -7 -3 -5 -6 -18 -48 -21 -26 -9 -16 -12 -2 -11 -27 -9 -23 -37 -43
0 0 0 0 0 0 0 0 0 0 0 -3 0 -1 -2 -1 0 0 0 -2 -1 -2 -1 -1 -1 -7 -3 -4 -9 0 -1 -3 -2 -2 -2 -3 -2 -4 -7 -5 -16 -27 -20 -9 -3 -13 -5 -13 -1 -11 -34 -88 -57 -20
0 0 0 0 0 0 0 0 0 0 0 -3 0 0 -1 0 -2 -2 -2 -2 -1 -1 -1 -1 -1 -5 -2 -3 -1 0 -2 -1 -1 -7 -2 -16 -19 -45 -15 -5 -3 -20 -24 -10 -27 -11 -20 -16 -5 -15 -42 -87 0 0
0 0 0 0 0 0 0 0 0 0 -1 -1 -2 0 0 -4 -2 -3 -11 -21 -3 -3 -5 -3 -5 -2 0 -1 -1 -2 0 -1 -1 -2 -4 -33 -18 -47 -22 -20 -12 -18 -15 -17 -9 -17 -9 -37 -51 -59 0 0 0 0
0 -1 0 0 0 0 0 0 0 0 -1 0 0 0 -6 -2 -2 -1 -5 -1 -3 -3 -3 -2 0 0 0 -1 0 -7 -1 -2 0 -1 -10 -9 -13 -6 -41 -2 -3 -14 -19 -19 -29 -82 -130 -154 0 0 0 0 0 0
0 -1 0 0 0 0 0 0 -2 0 0 0 0 0 0 -1 -2 -1 0 0 -9 -2 0 0 0 0 0 0 0 -3 0 -1 -1 -1 -14 -12 -12 -3 -8 -3 0 -15 -39 -75 -107 -124 0 0 0 0 0 -5 -19 -35
-1 -4 0 0 0 -1 -2 0 -1 0 0 0 0 0 -4 -4 -3 -3 -1 -1 -2 -4 0 0 0 0 0 0 -1 0 0 -3 -1 -4 -30 -5 -14 -11 -2 -15 -24 -55 0 0 0 0 0 0 0 0 0 0 -21 0
-1 -3 0 0 0 0 0 0 0 -1 0 0 0 0 -2 -3 -2 -1 -1 -1 0 0 0 -2 0 0 -1 -6 0 0 0 0 0 -2 -4 -3 0 -11 -16 -15 0 0 0 0 0 0 0 0 0 0 0 0 0 0
-12 -2 0 0 0 -2 0 0 0 0 0 -2 0 -3 -3 -1 -1 0 0 0 0 0 0 0 0 0 0 0 0 0 0 0 0 -4 0 -2 -14 0 0 0 0 0 0 0 0 0 0 0 0 0 0 0 0 0
-13 -2 0 0 -2 0 0 0 -1 0 -2 -2 -4 0 0 0 0 0 0 -1 0 0 0 0 -2 -5 0 0 0 0 0 0 0 0 0 0 0 0 0 0 0 0 0 0 0 -2 0 -1 -2 -4 0 -18 -5 -17
-1 0 -2 0 -1 0 0 0 0 -1 -1 -2 -1 0 0 0 0 0 -1 0 0 -2 -2 -2 0 -4 0 0 0 0 0 0 0 0 0 0 0 0 0 0 -7 -1 0 0 -2 0 -4 -13 -10 -7 -6 -11 -9 -11
0 0 -3 0 0 0 0 -1 0 -1 0 0 0 0 0 0 0 -1 0 0 0 0 0 -6 0 0 0 0 0 0 0 0 0 0 0 0 0 0 -1 -1 0 -1 -4 -2 0 0 0 0 0 -2 -16 -20 -3 -3
0 -2 -1 -1 -1 0 0 -2 -1 0 0 0 0 0 0 0 0 0 0 0 0 0 0 0 0 0 0 0 0 0 0 0 0 0 0 0 0 0 0 0 0 0 0 0 -20 0 0 0 0 0 0 0 -3 -12
0 0 0 0 0 -1 0 0 0 0 0 0 0 0 0 0 0 0 0 0 0 0 0 0 0 0 0 0 0 0 0 0 0 0 0 0 0 0 0 0 0 0 0 0 -31 0 0 0 0 -9 -14 -4 -1 -3
0 -1 -1 0 -1 0 0 0 0 0 0 0 -1 0 0 0 0 0 0 0 0 0 0 0 0 0 0 0 -17 0 0 0 0 0 0 0 0 0 0 0 0 -11 0 0 0 0 0 -22 -3 0 0 0 0 0
0 -1 0 0 0 0 0 0 0 0 0 0 0 0 0 0 0 0 0 -1 -4 0 0 0 0 -4 -1 -2 -3 -2 -13 -4 0 0 0 0 -14 -23 -4 -1 -2 -5 -15 -4 -3 -5 -4 -5 -1 0 0 0 0 0
0 0 0 0 0 0 0 0 0 0 0 -1 0 0 0 0 0 0 -1 -1 0 0 0 0 0 0 0 0 0 0 0 0 0 0 0 0 0 0 0 0 0 0 0 -1 -5 -1 -1 -1 -1 0 0 0 0 0
0 0 0 0 0 0 0 0 0 -1 0 0 0 -1 -1 -1 -1 0 0 0 -3 0 0 0 0 0 0 0 0 0 0 0 0 0 0 0 0 0 0 0 0 0 0 0 0 0 0 0 0 0 0 0 0 0
-1 0 -1 -1 0 0 -1 -2 -2 -1 -2 -2 -3 -1 0 -3 -2 -12 -4 -6 -5 -5 0 -2 -1 0 0 0 0 0 0 0 0 0 0 0 0 0 0 0 0 0 0 0 0 0 0 0 0 0 -4 -3 -2 -10
-2 -1 -1 0 0 -1 -2 -2 -3 -2 -1 -4 -2 -2 -3 -10 -31 -9 -5 -6 -5 -3 -4 -3 -1 -1 -2 -1 0 0 0 0 0 0 0 0 0 0 0 0 0 0 0 0 0 -2 0 -3 -2 -3 -2 -2 0 0
-1 -1 -1 0 -1 -8 -4 -4 -5 -6 -7 -5 -4 -5 -9 -4 -4 -2 -7 -7 -3 -5 -5 -3 -2 -2 -2 -5 0 0 0 0 0 0 0 0 -1 0 -2 -1 -1 -1 -1 -2 -2 -5 -3 -3 -3 -3 -2 -1 -2 -2
-1 -2 -3 -1 -5 -3 -4 -3 -2 -1 -2 -2 -3 -2 -2 -2 -1 -2 -2 -3 -4 -4 -5 -3 -2 -3 -2 -3 -2 -1 0 0 0 0 0 0 0 0 0 0 0 0 0 0 -4 -4 -3 -15 -23 -24 -30 -28 -28 -49
Wind_Speed
26 26 27 27 26 27 27 26 26 26 25 25 25 24 24 24 25 24 22 19 20 25 33 30 28 26 24 20 23 26 25 23 22 28 32 31 33 31 33 32 27 24 25 27 30 31 35 17 15 22 13 11 12 12
27 27 27 27 26 26 26 26 26 26 26 25 25 25 24 21 23 22 16 23 22 24 29 33 35 35 33 27 24 19 23 25 22 23 25 25 27 24 25 25 18 29 24 27 22 24 20 16 11 8 8 10 11 10
27 26 28 28 27 27 27 27 27 26 26 26 25 24 24 21 15 20 15 19 18 17 30 33 31 26 26 30 30 29 22 17 23 18 21 21 23 24 24 23 23 18 17 23 24 21 19 17 11 8 9 9 9 9
26 27 26 26 26 26 27 27 27 26 26 26 26 25 24 23 19 11 11 10 14 17 19 16 15 26 26 27 27 31 32 28 26 25 24 27 27 22 27 21 21 22 21 24 29 32 31 27 9 7 9 8 9 10
27 26 26 25 26 26 27 27 27 27 27 27 27 26 25 24 22 16 10 10 11 14 18 23 24 28 25 27 30 29 29 28 29 29 29 30 27 26 27 32 26 21 24 25 32 22 7 25 15 12 9 8 8 10
26 25 25 25 26 26 27 27 28 28 28 28 28 27 26 24 23 18 16 13 13 12 16 18 20 22 22 22 26 28 27 27 28 28 29 28 23 26 29 32 26 17 19 22 22 20 19 16 14 20 8 7 9 9
25 25 25 25 26 27 28 28 28 29 28 28 29 27 25 22 12 15 16 17 11 11 11 16 18 17 19 19 20 23 24 26 24 28 28 29 28 27 34 38 30 22 19 20 21 22 18 16 15 6 8 8 8 9
23 24 24 26 26 27 28 29 29 29 29 28 27 25 22 14 9 17 11 10 11 12 11 17 17 20 15 21 21 16 20 20 26 27 28 28 27 27 35 31 30 29 27 27 25 28 26 24 14 5 8 8 7 8
22 23 24 25 25 26 27 28 28 29 28 26 24 20 16 16 15 13 12 13 10 12 18 17 18 17 19 20 18 22 22 28 23 28 33 29 29 29 28 31 32 32 31 28 21 20 25 16 16 6 8 6 7 8
23 23 23 24 25 25 26 26 27 27 26 23 18 16 16 14 12 13 14 14 12 11 9 4 22 22 23 21 18 20 19 25 30 34 23 28 37 37 27 30 25 23 27 28 26 24 19 22 10 4 5 4 7 9
23 23 24 24 24 24 24 24 24 24 22 16 18 15 16 13 13 14 13 13 12 13 10 11 15 21 22 22 21 18 20 21 28 31 29 33 31 23 25 19 18 19 27 29 26 26 23 14 19 15 12 8 9 12
19 23 23 23 23 23 23 23 22 21 19 20 22 21 18 14 15 15 13 13 12 13 11 13 16 18 17 16 18 17 18 19 22 21 23 23 25 19 11 10 12 21 30 29 20 20 23 19 6 8 7 8 9 10
15 20 23 23 24 23 23 22 22 22 23 17 16 17 18 16 17 15 14 13 12 12 12 15 18 15 11 13 12 19 16 17 20 19 23 15 18 2 2 3 30 37 38 36 32 23 23 7 2 2 5 6 8 10
14 20 23 24 24 23 23 22 21 19 17 17 16 17 17 15 17 16 19 18 16 18 17 17 20 19 14 10 20 18 19 17 18 18 19 17 18 20 19 19 29 36 37 38 35 17 5 5 6 4 4 5 5 6
5 7 22 25 24 23 23 22 21 20 19 18 18 18 19 17 15 19 19 20 18 18 17 17 19 21 21 16 20 19 18 18 17 16 16 22 24 23 21 21 22 23 25 19 5 1 2 3 3 4 6 4 3 3
8 21 27 26 23 22 21 22 23 21 18 18 19 20 20 16 18 18 18 18 18 18 19 10 14 18 19 20 20 20 19 17 16 20 24 24 22 25 26 26 21 13 10 7 4 3 4 4 4 5 5 4 3 3
9 20 13 19 20 20 20 18 18 18 19 19 20 21 21 19 17 20 19 20 20 19 14 16 17 18 18 19 19 18 18 21 24 26 25 21 23 24 19 10 10 8 8 6 3 4 3 4 4 3 3 2 2 1
24 12 18 19 19 20 19 19 18 19 21 22 22 15 16 18 18 17 18 19 19 18 17 16 17 19 19 19 19 21 28 28 29 28 25 24 18 9 8 7 6 4 4 3 3 3 4 4 4 3 3 4 4 9
21 10 20 19 18 18 18 19 19 20 22 21 20 20 19 17 17 18 20 19 19 19 19 18 19 20 20 21 26 28 28 26 25 24 23 19 14 11 10 9 7 4 4 5 5 4 4 5 9 9 9 7 13 15
5 7 16 19 18 18 18 18 18 20 20 17 19 18 17 17 18 18 18 19 19 18 18 17 18 18 22 25 25 25 24 23 21 19 17 14 12 13 11 7 6 8 8 11 8 9 11 13 14 12 11 28 28 29
16 15 19 20 20 18 18 18 19 19 18 19 14 14 17 15 15 15 15 17 15 14 14 14 17 17 16 16 16 16 15 11 8 7 15 11 14 19 17 15 15 11 13 15 19 16 9 5 15 30 31 29 28 18
13 22 19 18 18 18 19 19 18 17 18 16 15 15 16 15 13 13 13 12 12 10 10 10 9 10 10 9 7 7 6 8 9 15 15 17 14 16 16 21 19 14 12 14 9 7 8 11 14 25 28 1 6 10
22 19 18 16 18 18 20 16 17 16 17 16 15 16 15 13 11 11 11 7 8 6 6 8 9 10 7 7 3 3 4 12 11 9 10 13 17 10 8 9 12 9 9 11 9 6 4 4 3 3 4 6 10 11
17 16 18 18 18 17 16 17 15 16 16 15 16 16 14 12 10 9 6 5 3 2 3 8 5 0 6 9 4 3 6 15 8 10 10 14 10 8 7 9 5 4 5 5 5 3 4 6 7 7 9 11 13 14
19 17 18 17 16 17 18 16 16 16 16 15 14 15 14 13 14 14 9 4 3 5 6 7 9 9 12 11 6 5 5 9 15 10 11 16 19 19 15 10 8 8 8 15 11 9 8 10 12 12 14 15 16 17
17 17 17 17 18 17 16 17 16 16 16 14 13 14 13 11 10 12 11 7 7 7 7 7 8 7 11 8 12 11 9 9 18 20 21 24 26 27 28 26 23 13 6 15 13 11 9 12 13 14 15 16 18 18
18 18 16 14 16 17 17 17 17 16 15 14 13 13 12 13 10 12 15 12 11 10 10 11 11 5 11 11 7 17 24 30 34 34 33 31 29 27 24 23 22 22 22 20 19 18 16 15 14 15 16 16 18 19
17 17 17 16 17 18 16 15 14 12 12 13 15 16 14 15 18 18 15 18 17 16 15 12 1 2 4 7 27 25 20 18 19 20 21 19 17 18 19 20 20 20 20 19 18 17 16 16 16 17 17 19 20 21
16 17 17 16 17 15 11 10 8 7 0 5 12 8 13 16 21 23 21 20 13 4 6 8 15 17 13 10 15 19 19 18 19 20 20 21 21 22 22 21 21 20 19 19 20 19 20 20 20 20 20 20 20 19
14 19 15 11 12 10 7 8 4 4 4 6 7 11 16 12 23 22 18 11 7 4 4 13 18 19 19 18 17 17 16 16 17 20 21 21 20 20 20 20 20 20 20 19 19 20 19 16 15 14 14 20 24 26
16 8 9 8 7 5 4 5 11 8 4 4 4 7 15 19 2 4 6 9 11 12 15 16 15 17 18 19 20 21 21 21 20 20 19 20 20 20 20 21 21 21 21 21 20 19 20 18 20 21 20 21 21 21
9 4 4 7 7 1 1 6 12 13 11 8 10 12 10 14 14 9 9 12 13 14 14 16 17 18 19 20 20 19 19 20 20 20 20 20 20 20 20 20 20 20 20 19 19 19 21 22 24 25 26 26 27 29
31 28 6 7 3 5 1 1 4 7 11 13 15 14 13 13 11 11 14 13 15 15 15 17 17 17 17 18 18 18 18 20 20 21 22 22 22 20 20 23 23 22 23 22 19 20 23 29 29 30 29 28 28 28
Wind_Direction
307 308 306 305 306 305 306 307 306 302 297 299 300 301 304 306 309 310 292 332 316 289 269 273 274 271 267 279 265 271 261 257 264 251 254 256 258 262 263 263 255 257 254 260 269 267 266 300 291 281 303 324 329 339
303 302 301 301 302 302 301 298 298 305 304 299 300 298 297 287 297 295 9 317 325 293 265 268 262 256 254 259 265 270 271 267 268 269 257 262 261 272 271 264 272 259 267 269 278 273 289 297 293 308 303 312 327 335
305 302 298 296 297 297 299 296 297 297 299 299 296 292 289 279 253 278 236 265 246 213 253 249 259 269 257 251 250 240 251 273 270 276 272 269 264 274 268 270 273 285 280 273 274 281 290 281 279 303 309 320 333 333
305 301 298 300 297 295 294 295 296 293 292 292 292 290 284 276 260 219 204 189 222 223 230 269 283 264 264 259 259 258 259 263 268 267 270 266 267 274 266 275 275 281 289 283 278 286 277 298 306 326 322 338 330 336
302 299 297 299 299 298 296 296 295 292 291 289 286 284 284 279 269 235 180 148 140 176 220 242 260 243 262 257 256 260 260 269 268 271 269 267 272 268 270 270 271 293 280 276 271 280 189 269 297 320 317 323 323 320
300 299 298 296 296 298 299 297 295 293 290 288 285 280 280 273 279 318 7 84 127 124 210 201 273 257 255 263 256 255 261 267 270 269 268 269 276 270 268 267 268 303 310 283 287 292 301 305 323 328 18 330 318 328
298 296 295 297 296 297 295 294 293 292 289 288 287 282 278 292 3 334 333 340 59 106 122 198 227 258 266 269 269 265 264 263 268 266 266 268 270 273 264 262 272 279 285 294 288 288 301 301 290 312 327 357 342 322
299 296 293 293 296 295 296 295 293 290 288 288 287 285 294 341 316 304 9 36 30 43 77 211 201 171 293 247 255 283 270 271 265 267 269 265 272 272 265 269 272 273 276 277 288 283 280 282 290 298 297 319 336 320
297 296 294 292 294 295 294 291 289 287 286 283 284 295 326 329 336 350 9 4 30 21 292 284 274 286 271 282 295 263 273 257 274 264 260 266 264 265 274 272 273 273 271 269 279 294 294 280 260 270 279 288 309 311
290 290 291 291 290 292 293 292 290 286 280 278 293 310 311 339 9 14 357 8 27 52 60 260 278 283 294 301 301 286 299 273 260 255 278 264 261 263 271 273 283 274 267 267 268 269 273 253 282 318 307 315 314 300
283 283 283 284 287 288 290 291 289 287 280 299 290 302 317 351 334 340 353 359 15 4 46 34 330 305 285 292 296 306 297 294 274 269 269 266 270 279 273 271 273 277 264 264 266 264 267 283 274 291 301 301 302 291
292 280 279 279 279 282 283 286 287 288 296 281 270 275 284 308 307 315 344 359 15 359 36 7 339 325 334 343 309 316 305 303 290 302 290 280 283 288 289 225 250 263 254 256 270 275 276 293 278 299 302 292 289 291
295 283 273 271 271 273 276 276 278 274 268 277 283 276 273 283 290 302 326 349 11 12 345 1 316 15 96 153 199 250 315 312 241 292 279 209 293 27 314 187 232 224 228 227 237 259 267 285 320 343 311 301 293 283
163 274 266 261 262 264 268 269 271 274 267 269 271 269 269 283 280 294 276 295 292 214 214 239 266 251 188 117 241 290 216 208 214 232 205 250 246 266 291 183 232 206 213 217 227 266 289 297 317 2 343 302 281 279
295 271 262 250 250 255 259 260 259 259 257 259 257 261 258 270 293 272 263 248 260 233 234 241 244 243 245 252 227 222 205 202 207 232 249 289 262 265 240 242 248 244 245 254 251 255 327 13 15 9 322 315 298 300
273 250 237 235 245 254 255 253 245 243 256 254 248 238 245 280 264 270 254 248 267 250 259 298 200 246 237 227 219 205 206 221 258 271 285 301 287 266 256 254 262 277 275 283 288 289 323 348 350 335 325 311 300 279
254 249 267 244 242 246 245 248 243 245 245 239 233 239 239 252 275 252 256 258 266 250 199 249 219 229 242 214 211 221 246 271 280 293 295 270 276 275 284 306 291 281 281 286 300 318 330 21 35 36 25 351 38 123
228 260 240 235 238 238 236 238 240 239 233 230 226 257 269 270 249 256 255 268 263 262 230 195 220 223 224 220 230 258 281 275 275 279 274 276 254 203 33 352 330 327 329 330 339 26 60 71 54 25 64 96 98 103
228 251 228 228 234 233 231 234 236 230 228 238 243 241 240 250 261 263 257 271 273 260 228 222 222 228 243 259 271 272 268 264 260 260 254 249 334 12 31 24 25 14 38 60 73 64 58 62 76 81 92 96 105 106
239 254 229 221 226 227 226 228 231 226 223 237 241 243 254 248 253 251 247 247 257 238 208 193 210 238 253 264 264 260 258 253 242 233 228 23 17 36 33 27 46 65 71 75 70 70 81 84 87 97 109 129 136 148
218 223 210 211 220 227 225 223 221 228 236 227 263 256 237 241 234 236 254 275 207 191 198 207 247 249 246 249 244 241 240 260 258 241 50 34 40 60 58 61 69 75 77 83 90 90 99 140 183 168 156 164 165 202
212 195 205 213 216 216 217 220 224 239 225 236 237 235 212 215 222 238 245 219 216 203 190 208 209 219 232 249 265 274 296 344 10 42 53 60 56 68 65 71 75 78 84 89 112 157 164 176 188 170 159 178 29 47
185 195 203 209 205 206 207 226 213 219 212 216 223 208 204 209 225 228 218 238 189 227 227 204 178 169 190 175 321 351 352 18 30 50 65 68 68 79 92 135 149 135 98 162 165 142 172 214 263 270 334 10 30 38
195 200 196 196 199 201 211 202 210 212 211 209 204 194 193 198 207 190 206 203 242 250 168 152 160 146 16 12 34 57 44 44 85 78 87 72 78 132 108 76 86 128 72 69 70 64 18 6 353 349 341 338 336 348
182 186 189 189 195 193 192 199 203 200 195 199 199 188 188 186 172 163 155 145 59 61 87 86 55 82 49 43 57 86 92 51 58 63 47 59 64 64 62 57 44 36 37 62 53 40 6 347 358 19 19 12 1 359
174 181 181 182 185 189 192 188 191 191 193 197 204 191 195 199 204 183 177 173 151 135 124 119 115 65 37 77 59 66 69 59 51 57 62 67 72 78 80 75 71 51 52 47 43 35 11 349 25 11 7 4 359 357
166 170 180 192 189 185 183 184 186 187 191 200 206 207 209 199 207 191 180 181 170 159 151 142 140 37 28 34 48 128 130 111 88 93 105 105 103 97 74 65 61 74 102 93 73 70 65 51 40 34 25 16 9 3
170 174 170 176 175 177 180 182 187 199 211 208 196 187 189 184 171 170 173 161 152 165 164 159 158 6 8 23 61 57 46 41 45 49 48 40 32 31 38 46 46 42 36 26 51 48 45 38 27 19 12 5 1 358
169 174 174 175 177 182 188 186 196 199 62 152 161 172 177 174 171 162 174 178 189 244 198 9 25 26 15 9 22 33 35 35 41 44 43 42 40 44 52 53 52 44 47 36 21 20 15 14 10 10 6 6 5 5
172 170 173 177 177 183 183 173 130 119 62 54 53 52 53 137 150 154 171 189 222 272 316 14 31 32 30 25 21 18 12 13 18 32 38 38 35 35 34 34 36 37 37 38 36 35 35 36 35 40 37 15 4 357
160 138 82 79 91 87 105 76 56 53 83 83 53 43 46 57 196 219 360 8 15 18 24 22 12 15 19 23 30 35 35 29 23 17 19 27 28 27 27 28 28 26 27 28 30 35 30 32 22 15 11 8 5 2
158 133 109 64 56 80 65 45 53 52 42 27 33 38 31 36 30 358 345 17 18 16 7 11 13 15 22 37 31 19 12 8 360 359 356 6 13 9 22 31 34 38 36 39 37 29 21 17 13 9 6 3 359 356
123 125 111 66 105 184 298 285 350 11 30 35 42 31 22 19 360 336 5 348 355 358 360 0 6 17 9 7 21 33 30 26 31 31 28 23 17 356 324 343 359 14 17 25 36 30 20 6 7 5 5 4 3 1